Springfield, MO

4:03 PM CDT on September 20, 2017 (GMT -0500)
Springfield-Branson Regional

Weather History for KSGF - November, 2013

Change the Weather History Date:

Tuesday, November 12, 2013

  Actual Average Record
Temperature  
Mean Temperature 30 °F 48 °F  
Max Temperature 37 °F 59 °F 80 °F (1999)
Min Temperature 22 °F 37 °F 9 °F (1911)
Degree Days  
Heating Degree Days 35 17  
Month to date heating degree days 196 179  
Since 1 July heating degree days 500 487  
Cooling Degree Days 0 0  
Month to date cooling degree days 0 0  
Year to date cooling degree days 1417 1387  
Moisture  
Dew Point 18 °F    
Average Humidity 62    
Maximum Humidity 85    
Minimum Humidity 38    
Precipitation  
Precipitation 0.00 in 0.15 in 2.74 in (1909)
Month to date precipitation 1.12 1.70  
Year to date precipitation 48.38 40.01  
Snow  
Snow 0.00 in - - ()
Month to date snowfall 0.0  
Since 1 July snowfall 0.0  
Since 1 September snowfall 0.0  
Snow Depth 0.00 in    
Sea Level Pressure  
Sea Level Pressure 30.68 in    
Wind  
Wind Speed 12 mph (North)    
Max Wind Speed 25 mph    
Max Gust Speed 30 mph    
Visibility 10 miles    
Events      
T = Trace of Precipitation, MM = Missing Value Source: NWS Daily Summary

Daily Weather History Graph

Daily Weather History Graph

Search for Another Location

Airport or City:

Trip Planner

Search our weather history database for the weather conditions in past years. The results will help you decide how hot, cold, wet, or windy it might be!

Date:

Astronomy

Nov. 12, 2013 Rise Set
Actual Time 6:49 AM CST 5:05 PM CST
Civil Twilight 6:22 AM CST 5:32 PM CST
Nautical Twilight 5:50 AM CST 6:04 PM CST
Astronomical Twilight 5:20 AM CST 6:35 PM CST
Moon 2:14 PM CST (11/12) 1:46 AM CST (11/12)
Length of Visible Light 11h 10m
Length of Day
10h 15m
Waxing Gibbous, 76% of the Moon is Illuminated
Nov 12
Waxing Gibbous
Nov 17
Full
Nov 25
Last Quarter
Dec 2
New
Dec 9
First Quarter

Hourly Weather History & Observations

Time (CST) Temp. Windchill Dew Point Humidity Pressure Visibility Wind Dir Wind Speed Gust Speed Precip Events Conditions
12:52 AM 35.1 °F 24.1 °F 30.9 °F 85% 30.50 in 10.0 mi North 19.6 mph - N/A   Overcast
1:40 AM 32.0 °F 20.1 °F 25.0 °F 75% 30.51 in 10.0 mi North 19.6 mph - N/A   Overcast
1:52 AM 32.0 °F 19.2 °F 23.0 °F 69% 30.53 in 10.0 mi North 23.0 mph 29.9 mph N/A   Overcast
2:18 AM 30.9 °F 18.7 °F 21.9 °F 69% 30.53 in 10.0 mi North 19.6 mph 28.8 mph N/A   Overcast
2:52 AM 30.0 °F 18.3 °F 19.9 °F 66% 30.56 in 10.0 mi North 17.3 mph - N/A   Overcast
3:52 AM 28.9 °F 18.2 °F 21.0 °F 72% 30.58 in 10.0 mi North 13.8 mph - N/A   Partly Cloudy
4:07 AM 28.9 °F 16.5 °F 21.0 °F 72% 30.57 in 10.0 mi North 18.4 mph 24.2 mph N/A   Mostly Cloudy
4:37 AM 28.0 °F 16.1 °F 19.9 °F 72% 30.60 in 10.0 mi North 16.1 mph - N/A   Scattered Clouds
4:52 AM 28.0 °F 16.5 °F 19.9 °F 72% 30.63 in 10.0 mi North 15.0 mph - N/A   Clear
5:28 AM 27.0 °F 16.7 °F 19.9 °F 75% 30.64 in 10.0 mi North 11.5 mph - N/A   Mostly Cloudy
5:52 AM 27.0 °F 14.3 °F 18.0 °F 69% 30.67 in 10.0 mi North 17.3 mph - N/A   Overcast
6:52 AM 25.0 °F 12.6 °F 18.0 °F 75% 30.69 in 10.0 mi NNE 15.0 mph - N/A   Mostly Cloudy
7:00 AM 25.0 °F 13.1 °F 18.0 °F 75% 30.68 in 10.0 mi NNE 13.8 mph - N/A   Scattered Clouds
7:52 AM 25.0 °F 12.6 °F 17.1 °F 72% 30.74 in 10.0 mi NNE 15.0 mph - N/A   Scattered Clouds
8:23 AM 26.1 °F 14.5 °F 18.0 °F 71% 30.72 in 10.0 mi North 13.8 mph - N/A   Mostly Cloudy
8:49 AM 26.6 °F 13.1 °F 17.6 °F 69% 30.74 in 10.0 mi NNE 19.6 mph - N/A   Scattered Clouds
8:52 AM 26.1 °F 13.1 °F 17.1 °F 69% 30.78 in 10.0 mi North 17.3 mph - N/A   Scattered Clouds
9:52 AM 28.9 °F 17.7 °F 17.1 °F 61% 30.78 in 10.0 mi NNE 15.0 mph - N/A   Clear
10:52 AM 30.0 °F 20.5 °F 16.0 °F 56% 30.78 in 10.0 mi NE 11.5 mph - N/A   Clear
11:52 AM 33.1 °F 23.9 °F 15.1 °F 48% 30.77 in 10.0 mi North 12.7 mph - N/A   Clear
12:52 PM 35.1 °F 25.2 °F 14.0 °F 42% 30.75 in 10.0 mi North 16.1 mph - N/A   Clear
1:52 PM 37.0 °F 27.7 °F 15.1 °F 41% 30.73 in 10.0 mi North 16.1 mph 24.2 mph N/A   Clear
2:52 PM 36.0 °F 28.0 °F 12.9 °F 39% 30.72 in 10.0 mi NNE 11.5 mph - N/A   Clear
3:52 PM 36.0 °F 27.5 °F 14.0 °F 41% 30.72 in 10.0 mi North 12.7 mph - N/A   Clear
4:52 PM 33.1 °F 25.5 °F 14.0 °F 46% 30.72 in 10.0 mi North 9.2 mph - N/A   Clear
5:52 PM 28.9 °F 22.8 °F 15.1 °F 56% 30.73 in 10.0 mi North 5.8 mph - N/A   Clear
6:52 PM 26.1 °F 18.4 °F 16.0 °F 66% 30.73 in 10.0 mi NNW 6.9 mph - N/A   Clear
7:52 PM 26.1 °F 20.5 °F 15.1 °F 63% 30.73 in 10.0 mi NNW 4.6 mph - N/A   Clear
8:52 PM 26.1 °F - 15.1 °F 63% 30.74 in 10.0 mi Calm Calm - N/A   Clear
9:52 PM 23.0 °F - 15.1 °F 72% 30.74 in 10.0 mi Calm Calm - N/A   Clear
10:52 PM 24.1 °F - 14.0 °F 65% 30.73 in 10.0 mi Calm Calm - N/A   Clear
11:52 PM 21.9 °F - 15.1 °F 75% 30.72 in 10.0 mi Calm Calm - N/A   Clear